[[[{"header":{"parameterUnit":"kt","parameterCategory":2,"dx":1,"dy":1,"la1":30.253999710083008,"la2":30.299108505249023,"lo1":-89.0895004272461,"lo2":-89.04439544677734,"nx":28,"ny":28,"refTime":"2022-09-29T21:00:00:Z","depth":0,"parameterNumber":1,"parameterNumberName":"U-component_of_WINDS"},"data":[-6.4905,-6.5111,-6.5103,-6.5333,-6.5364,-6.552,-6.5572,-6.5639,-6.569,-6.5873,-6.5977,-6.5988,-6.6035,-6.6156,-6.6266,-6.6269,-6.6318,-6.6395,-6.6385,-6.6044,-6.5996,-6.5951,-6.5903,-6.6405,-6.6406,-6.6741,-6.6744,-6.6746,-6.4654,-6.4688,-6.4807,-6.4918,-6.502,-6.4939,-6.502,-6.511,-6.5251,-6.5315,-6.5417,-6.5577,-6.5701,-6.5722,-6.584,-6.5935,-6.5904,-6.5967,-6.5962,-6.597,-6.5604,-6.5554,-6.599,-6.599,-6.599,-6.599,-6.599,-6.599,-6.4194,-6.4318,-6.438,-6.4509,-6.4562,-6.4636,-6.4752,-6.4764,-6.488,-6.5004,-6.497,-6.5129,-6.5191,-6.5329,-6.5373,-6.5495,-6.5423,-6.5491,-6.5508,-6.5526,-6.5548,-6.5068,-6.5515,-6.5513,-6.5512,-6.5511,-6.551,0,-6.3856,-6.3841,-6.3955,-6.4067,-6.4161,-6.4247,-6.4324,-6.4395,-6.4359,-6.4456,-6.4596,-6.4675,-6.483,-6.496,-6.5069,-6.5101,-6.5029,-6.5019,-6.5066,-6.5087,-6.509,-6.5093,-6.4498,-6.5007,-6.5003,-6.5,-6.4997,-6.4996,-6.3393,-6.3538,-6.3599,-6.368,-6.372,-6.3852,-6.3928,-6.3885,-6.3969,-6.4056,-6.4167,-6.4296,-6.4398,-6.4622,-6.4634,-6.475,-6.4717,-6.4912,-6.4734,-6.4747,-6.4723,-6.4716,-6.473,-6.4949,-6.4955,-6.496,-6.4964,0,-6.3134,-6.312,-6.3341,-6.3387,-6.3403,-6.3556,-6.3595,-6.3715,-6.3713,-6.3879,-6.3915,-6.3913,-6.4051,-6.4031,-6.4184,-6.4169,-6.4421,-6.4384,-6.4399,-6.4391,-6.4566,-6.4551,-6.5133,-6.5207,-6.4683,-6.4687,-6.4692,0,-6.2735,-6.2927,-6.2894,-6.3024,-6.3234,-6.3186,-6.3396,-6.3415,-6.3468,-6.3598,-6.3511,-6.3635,-6.359,-6.3711,-6.369,-6.3891,-6.392,-6.3921,-6.3914,-6.3931,-6.3932,-6.3977,-6.3954,-6.3889,-6.3886,-6.3883,-6.3881,0,-6.2333,-6.2539,-6.2748,-6.2793,-6.2862,-6.2961,-6.2994,-6.3052,-6.3128,-6.3222,-6.327,-6.3383,-6.3446,-6.3534,-6.3507,-6.3387,-6.3752,-6.3581,-6.3754,-6.3755,-6.3839,-6.3835,-6.4351,-6.3877,-6.3877,-6.3876,-6.3875,0,-6.201,-6.2107,-6.2412,-6.2466,-6.2522,-6.266,-6.2768,-6.2881,-6.295,-6.2945,-6.3019,-6.296,-6.3133,-6.2965,-6.3204,-6.3055,-6.3122,-6.3138,-6.315,-6.3168,-6.2981,-6.3279,-6.3771,-6.3823,-6.3179,-6.3173,-6.3168,0,-6.1554,-6.1858,-6.1819,-6.211,-6.2248,-6.2142,-6.2293,-6.2356,-6.2363,-6.248,-6.2486,-6.2621,-6.2491,-6.2531,-6.2651,-6.2664,-6.2856,-6.2637,-6.2808,-6.2815,-6.2796,-6.3247,-6.3327,-6.3664,-6.3093,-6.3101,-6.3107,0,-6.1199,-6.1281,-6.1336,-6.1385,-6.1462,-6.1577,-6.1751,-6.1873,-6.1953,-6.2033,-6.2179,-6.2366,-6.2276,-6.2342,-6.2306,-6.2433,-6.2724,-6.232,-6.2321,-6.2396,-6.3054,-6.3128,-6.3185,-6.2672,-6.2681,-6.2688,-6.3048,0,-6.0718,-6.0868,-6.1014,-6.1126,-6.1211,-6.1392,-6.1372,-6.1463,-6.142,-6.1423,-6.1635,-6.1683,-6.1809,-6.1866,-6.1826,-6.2121,-6.2069,-6.1973,-6.1811,-6.2106,-6.2224,-6.2272,-6.1636,-6.1631,-6.1627,-6.1624,0,0,-6.0287,-6.0501,-6.0454,-6.0622,-6.0691,-6.0579,-6.0774,-6.0828,-6.0942,-6.0992,-6.09,-6.1173,-6.1216,-6.1477,-6.1567,-6.1617,-6.1669,-6.1567,-6.1965,-6.2003,-6.2039,-6.2165,-6.2216,-6.1616,-6.1615,-6.1613,-6.1612,0,-6.0107,-6.0153,-6.0346,-6.04,-6.0479,-6.0473,-6.0519,-6.0577,-6.0589,-6.0796,-6.0702,-6.0827,-6.1046,-6.1105,-6.1163,-6.1533,-6.1457,-6.1573,-6.178,-6.1924,-6.1968,-6.2006,-6.214,-6.2188,-6.1602,-6.1602,-6.1603,0,-5.9756,-5.9799,-5.989,-6.0042,-6.0092,-6.0237,-6.006,-6.0221,-6.0327,-6.0198,-6.0406,-6.0431,-6.0507,-6.0755,-6.0866,-6.0786,-6.1266,-6.111,-6.1136,-6.1149,-6.1288,-6.134,-6.1387,-6.0772,-6.0769,-6.0766,0,0,-5.9604,-5.9743,-5.9776,-6.0002,-6.004,-6.0034,-6.0109,-6.0074,-6.0145,-6.0174,-6.0204,-6.0276,-6.0403,-6.0488,-6.0605,-6.0881,-6.0894,-6.1009,-6.1048,-6.108,-6.1111,-6.1258,-6.131,-6.0756,-6.0756,-6.0755,0,0,-5.9532,-5.9579,-5.9523,-5.9782,-5.9853,-5.9901,-6.004,-5.9972,-6.0076,-6.0054,-6.0002,-6.0019,-6.0251,-6.0279,-6.0139,-6.0548,-6.0387,-6.042,-6.0522,-6.0571,-6.061,-6.0599,-5.9967,0,0,0,0,0,-5.9339,-5.9572,-5.9521,-5.9562,-5.9754,-5.9929,-5.9953,-5.9916,-5.9803,-5.9914,-5.9928,-5.984,-6.0193,-6.0068,-6.0109,-6.0266,-6.0619,-6.0643,-6.0666,-6.0862,-6.0913,-6.0957,0,0,0,0,0,0,-5.9354,-5.9404,-5.9515,-5.9573,-5.9616,-5.992,-5.9721,-5.9717,-5.979,-5.9771,-5.984,-5.9842,-5.9814,-6.0044,-6.0082,-6.0232,-5.9954,-6.0629,-6.0649,-6.0668,-6.0879,-6.0921,-6.0958,0,0,0,0,0,-5.9367,-5.9407,-5.9725,-5.957,-5.9607,-5.9613,-5.9711,-5.9707,-5.9763,-5.9786,-5.9785,-5.9729,-5.9819,-5.9849,-6.0066,-6.0216,-5.9928,-5.9942,-6.0642,-6.0658,-6.0673,-6.09,0,0,0,0,0,0,-5.9376,-5.9404,-5.9731,-5.9741,-5.9479,-5.9595,-5.9612,-5.9699,-5.9773,-5.9775,-5.9671,-5.9654,-5.9826,-5.9847,-5.987,-6.0213,-5.9907,-5.9921,-5.993,-6.0654,-6.0667,-6.0678,0,0,0,0,0,0,-5.9382,-5.9413,-5.9736,-5.9624,-5.9621,-5.9579,-5.9595,-5.9774,-5.9775,-5.9653,-5.9641,-5.9663,-5.9792,-5.9848,-5.9865,-6.0147,-5.989,-5.9904,-5.9914,-5.992,-6.0665,-6.0675,0,0,0,0,0,0,-5.9394,-5.9421,-5.9621,-5.9619,-5.9615,-5.9724,-5.9737,-5.9936,-5.9679,-5.9651,-5.9654,-5.9643,-5.9795,-5.9811,-5.9863,-6.0137,-6.0144,-5.9891,-5.99,-5.9907,-5.9911,0,0,0,0,0,0,0,-5.9404,-5.9234,-5.9673,-5.9614,-5.9611,-5.9833,-5.9836,-5.9838,-5.9676,-5.9666,-5.9657,-5.9648,-5.9812,-5.9827,-5.9842,-6.013,0,0,-5.9889,-5.9896,0,0,0,0,0,0,0,0,-5.9222,-5.9231,-5.9673,-5.9675,-5.9677,-5.9834,-5.9836,-5.9838,-5.9674,-5.9667,-5.9659,-5.9652,-5.9816,-5.9828,-5.984,0,0,0,0,0,0,0,0,0,0,0,0,0,0,0,-5.9673,-5.9675,0,-5.9834,-5.9836,-5.9837,-5.9673,-5.9667,-5.9661,-5.9654,-5.9819,-5.9829,-5.9839,0,0,0,0,0,0,0,0,0,0,0,0,0,0,0,0,0,0,0,0,0,0,0,0,0,0,0,0,0,0,0,0,0,0,0,0,0,0,0,0,0,0,0,0,0,0,0,0,0,0,0,0,0,0,0,0,0,0,0,0,0,0,0,0,0,0,0,0,0]}],[{"header":{"parameterUnit":"kt","parameterCategory":2,"dx":1,"dy":1,"la1":30.253999710083008,"la2":30.299108505249023,"lo1":-89.0895004272461,"lo2":-89.04439544677734,"nx":28,"ny":28,"refTime":"2022-09-29T21:00:00:Z","depth":0,"parameterNumber":2,"parameterNumberName":"V-component_of_WINDS"},"data":[-16.1924,-16.218,-16.215,-16.2427,-16.2445,-16.2627,-16.2681,-16.2747,-16.279,-16.2999,-16.3112,-16.3103,-16.3129,-16.3252,-16.337,-16.3361,-16.3413,-16.3527,-16.3497,-16.3021,-16.2952,-16.2887,-16.2825,-16.3539,-16.354,-16.3994,-16.3999,-16.4002,-16.1576,-16.16,-16.1738,-16.185,-16.1967,-16.1839,-16.1915,-16.202,-16.2184,-16.2239,-16.2349,-16.2528,-16.2663,-16.2649,-16.2772,-16.2885,-16.2829,-16.2921,-16.291,-16.2916,-16.2406,-16.2341,-16.2964,-16.2964,-16.2964,-16.2964,-16.2963,-16.2963,-16.0936,-16.1091,-16.1141,-16.129,-16.1337,-16.1412,-16.1552,-16.1538,-16.1669,-16.1798,-16.1731,-16.1914,-16.1958,-16.2088,-16.2122,-16.226,-16.2151,-16.2239,-16.2261,-16.2284,-16.2315,-16.1662,-16.2279,-16.2277,-16.2275,-16.2273,-16.2272,0,-16.0456,-16.042,-16.055,-16.0672,-16.0778,-16.0867,-16.0942,-16.1028,-16.0933,-16.1045,-16.1202,-16.1286,-16.145,-16.1591,-16.1697,-16.1713,-16.1585,-16.1568,-16.1628,-16.1664,-16.1683,-16.1674,-16.0843,-16.155,-16.1544,-16.1539,-16.1536,-16.1533,-15.9806,-15.9991,-16.0027,-16.0123,-16.0156,-16.0311,-16.0395,-16.0298,-16.0391,-16.0466,-16.0604,-16.0745,-16.0853,-16.1106,-16.1081,-16.1202,-16.114,-16.1414,-16.1157,-16.1184,-16.1142,-16.1132,-16.1149,-16.1466,-16.1474,-16.1481,-16.1487,0,-15.9442,-15.9389,-15.9665,-15.968,-15.9689,-15.9887,-15.9897,-16.0045,-16.0013,-16.0212,-16.0252,-16.0201,-16.0355,-16.0285,-16.0445,-16.0403,-16.072,-16.0657,-16.0704,-16.0687,-16.0924,-16.0903,-16.1708,-16.1807,-16.1067,-16.1075,-16.1081,0,-15.8865,-15.9112,-15.9017,-15.918,-15.9448,-15.9344,-15.9611,-15.961,-15.9648,-15.9803,-15.9649,-15.9797,-15.9684,-15.9821,-15.976,-16.0006,-16.0036,-16.0017,-15.9998,-16.0031,-16.0034,-16.0076,-16.0041,-15.9948,-15.9944,-15.994,-15.9937,0,-15.8301,-15.8538,-15.8802,-15.8847,-15.8887,-15.9012,-15.9033,-15.9074,-15.9156,-15.9251,-15.9302,-15.942,-15.9484,-15.9576,-15.9496,-15.9324,-15.9795,-15.9542,-15.9776,-15.9779,-15.9883,-15.9878,-16.061,-15.9932,-15.9931,-15.993,-15.9928,0,-15.7825,-15.793,-15.8321,-15.8349,-15.8415,-15.8588,-15.8698,-15.883,-15.8883,-15.8856,-15.8929,-15.8817,-15.9027,-15.8781,-15.9068,-15.8867,-15.8938,-15.894,-15.8955,-15.8968,-15.8695,-15.9116,-15.9822,-15.9892,-15.8982,-15.8974,-15.8967,0,-15.7193,-15.7574,-15.7487,-15.7861,-15.8026,-15.7842,-15.8031,-15.8083,-15.8063,-15.8197,-15.8171,-15.8325,-15.8127,-15.8164,-15.8316,-15.8295,-15.8556,-15.8257,-15.8446,-15.8454,-15.8438,-15.9086,-15.9209,-15.9675,-15.8865,-15.8876,-15.8883,0,-15.6696,-15.6744,-15.6817,-15.6863,-15.6919,-15.7056,-15.7274,-15.7403,-15.7497,-15.7573,-15.7751,-15.7964,-15.7822,-15.7886,-15.7806,-15.7968,-15.8376,-15.7793,-15.7792,-15.7899,-15.8808,-15.8923,-15.9002,-15.8285,-15.8298,-15.8307,-15.8803,0,-15.5988,-15.6171,-15.6366,-15.6474,-15.6569,-15.6799,-15.6727,-15.6835,-15.6749,-15.6721,-15.6981,-15.7004,-15.7133,-15.7203,-15.712,-15.7514,-15.7436,-15.7283,-15.7037,-15.7464,-15.7625,-15.7691,-15.6803,-15.6795,-15.6789,-15.6784,0,0,-15.5395,-15.5656,-15.5553,-15.5763,-15.5836,-15.5641,-15.5892,-15.594,-15.6042,-15.6095,-15.5958,-15.6263,-15.6287,-15.6609,-15.6737,-15.679,-15.6852,-15.6706,-15.7262,-15.7315,-15.7365,-15.7539,-15.7608,-15.6772,-15.677,-15.6768,-15.6765,0,-15.5121,-15.5158,-15.541,-15.5456,-15.552,-15.5479,-15.554,-15.5568,-15.5561,-15.5817,-15.5648,-15.5794,-15.6041,-15.6088,-15.6145,-15.6666,-15.6528,-15.671,-15.7015,-15.7199,-15.7262,-15.7316,-15.75,-15.7568,-15.675,-15.6751,-15.6751,0,-15.4618,-15.4641,-15.4755,-15.4915,-15.4955,-15.5129,-15.4854,-15.5051,-15.5177,-15.4949,-15.5204,-15.5207,-15.5264,-15.5579,-15.5718,-15.5596,-15.6238,-15.6022,-15.6061,-15.6074,-15.6248,-15.6323,-15.639,-15.5509,-15.5505,-15.5502,0,0,-15.439,-15.456,-15.4552,-15.4851,-15.4888,-15.4831,-15.4916,-15.4839,-15.4897,-15.4921,-15.4921,-15.498,-15.512,-15.5216,-15.5345,-15.5702,-15.5704,-15.5873,-15.5931,-15.5979,-15.6019,-15.6205,-15.628,-15.5487,-15.5486,-15.5486,0,0,-15.428,-15.4284,-15.4188,-15.4526,-15.4589,-15.4598,-15.4781,-15.4662,-15.4771,-15.4736,-15.4611,-15.4622,-15.4915,-15.4924,-15.4731,-15.5255,-15.5013,-15.5057,-15.5239,-15.5311,-15.5369,-15.536,-15.4449,0,0,0,0,0,-15.3963,-15.4283,-15.4196,-15.4242,-15.4443,-15.4647,-15.4671,-15.4578,-15.4408,-15.4556,-15.4536,-15.4384,-15.4793,-15.4619,-15.4665,-15.4881,-15.5292,-15.5326,-15.5359,-15.5676,-15.5753,-15.5818,0,0,0,0,0,0,-15.398,-15.4037,-15.4187,-15.4212,-15.4255,-15.4634,-15.4327,-15.431,-15.439,-15.4358,-15.4393,-15.4385,-15.4307,-15.4589,-15.4632,-15.4839,-15.4434,-15.5305,-15.5335,-15.5361,-15.5703,-15.5766,-15.582,0,0,0,0,0,-15.3993,-15.4039,-15.4386,-15.4206,-15.4244,-15.4197,-15.4314,-15.4297,-15.4357,-15.4328,-15.4316,-15.428,-15.4316,-15.4344,-15.4614,-15.4822,-15.4404,-15.442,-15.5324,-15.5348,-15.5368,-15.5733,0,0,0,0,0,0,-15.4003,-15.4024,-15.4391,-15.4399,-15.4079,-15.4173,-15.4185,-15.4288,-15.432,-15.4312,-15.4207,-15.4181,-15.4326,-15.4346,-15.4369,-15.4822,-15.438,-15.4396,-15.4406,-15.5342,-15.536,-15.5376,0,0,0,0,0,0,-15.3998,-15.4032,-15.4395,-15.424,-15.4229,-15.4153,-15.4163,-15.4378,-15.4323,-15.4196,-15.4175,-15.4195,-15.4289,-15.4349,-15.4366,-15.4705,-15.4361,-15.4377,-15.4388,-15.4394,-15.5357,-15.5371,0,0,0,0,0,0,-15.401,-15.4039,-15.4237,-15.4229,-15.4218,-15.43,-15.4339,-15.4549,-15.4194,-15.4198,-15.4159,-15.4143,-15.4297,-15.4311,-15.4365,-15.4698,-15.4703,-15.4361,-15.4372,-15.438,-15.4385,0,0,0,0,0,0,0,-15.4021,-15.3851,-15.4345,-15.422,-15.421,-15.4473,-15.4475,-15.4477,-15.419,-15.4177,-15.4163,-15.415,-15.4271,-15.4288,-15.4306,-15.4692,0,0,-15.436,-15.4367,0,0,0,0,0,0,0,0,-15.3837,-15.3848,-15.4345,-15.4347,-15.4348,-15.4473,-15.4475,-15.4476,-15.4188,-15.4177,-15.4166,-15.4155,-15.4276,-15.429,-15.4304,0,0,0,0,0,0,0,0,0,0,0,0,0,0,0,-15.4345,-15.4347,0,-15.4473,-15.4475,-15.4476,-15.4186,-15.4177,-15.4168,-15.4159,-15.4279,-15.4291,-15.4303,0,0,0,0,0,0,0,0,0,0,0,0,0,0,0,0,0,0,0,0,0,0,0,0,0,0,0,0,0,0,0,0,0,0,0,0,0,0,0,0,0,0,0,0,0,0,0,0,0,0,0,0,0,0,0,0,0,0,0,0,0,0,0,0,0,0,0,0,0]}]]]